Lid_Strength_Index
2 2 2 2 1 1 1 2 2 2 2 2 2 2 2 2 2 3 3 3 3 3 4 3 2 2 2 4 4 -1 -2 -1 -1 3 2 3 5 5 7 6 6 7 6 5 5 5 5
2 2 3 3 2 2 2 2 2 2 2 2 2 3 3 3 3 3 3 3 3 4 4 3 2 2 3 6 0 -1 -1 -0 1 6 4 3 4 3 5 6 6 6 6 6 5 5 5
2 2 2 3 3 3 3 2 2 2 3 3 3 3 3 3 3 3 3 4 4 4 3 3 2 2 4 4 -0 -0 1 2 3 7 6 3 4 5 4 6 5 5 7 6 6 5 6
2 2 2 2 3 3 3 3 3 3 3 3 3 3 3 3 3 3 4 4 4 3 3 2 2 3 5 2 -0 2 2 3 2 6 3 2 4 5 4 4 6 7 7 10 7 6 5
2 2 2 2 3 3 3 3 3 3 3 4 4 4 4 4 4 4 5 4 3 3 3 2 2 3 6 3 3 2 3 5 3 6 3 4 5 6 5 7 9 8 11 10 9 6 6
2 2 2 2 2 3 3 3 3 3 4 4 4 4 4 4 5 5 5 4 3 3 2 2 3 4 4 5 4 2 2 4 4 6 4 7 6 6 6 8 13 11 11 9 10 7 7
2 2 2 2 2 3 3 3 3 4 4 4 4 4 5 5 5 5 4 3 4 5 4 6 6 6 5 4 3 3 2 3 3 3 5 6 6 8 7 7 8 8 9 11 8 7 8
3 3 3 3 3 3 3 4 4 4 4 4 4 4 5 5 5 5 4 5 5 5 7 6 6 6 5 4 6 4 2 5 4 6 5 6 7 5 7 7 8 7 9 10 7 7 8
3 3 3 3 3 3 4 4 4 4 4 5 5 5 5 5 6 5 4 5 4 4 6 7 6 6 6 5 6 5 3 5 5 6 6 7 6 6 8 8 8 7 8 8 9 8 7
3 3 4 4 4 4 4 4 4 4 5 5 5 5 5 6 6 3 5 4 3 4 8 9 7 6 5 5 7 4 3 5 6 7 6 6 5 7 6 7 6 8 6 7 8 9 11
3 4 4 4 4 5 5 5 5 5 5 5 5 5 6 6 3 5 4 3 4 5 12 8 7 5 5 6 6 6 4 5 7 7 7 8 7 7 7 7 5 7 7 7 7 8 9
3 4 4 4 5 5 5 5 5 5 5 5 5 5 6 4 3 4 3 4 5 9 13 10 8 8 8 7 7 5 5 5 6 7 7 7 7 7 7 6 6 6 7 7 7 8 12
4 4 5 5 5 5 6 5 5 5 5 5 5 6 5 3 4 3 3 5 10 12 8 10 10 9 8 9 9 7 7 8 9 10 9 8 8 7 7 8 6 6 7 12 13 13 13
5 5 5 5 6 6 6 6 6 6 5 5 6 6 4 2 1 2 4 7 12 10 9 9 9 9 10 9 9 8 8 9 7 8 8 10 11 8 7 7 8 7 7 10 14 13 11
5 5 6 6 6 6 6 6 6 6 6 6 7 1 2 2 2 2 6 10 9 9 8 9 9 10 10 9 9 9 9 9 8 7 10 10 10 7 7 6 7 8 9 6 9 8 10
6 6 6 6 6 6 6 6 6 6 6 6 3 2 3 3 2 4 7 10 9 8 8 8 10 9 10 10 10 10 9 8 8 7 6 8 10 8 8 7 6 7 6 9 8 12 13
6 6 7 7 7 7 7 7 7 7 7 7 3 5 4 3 4 6 9 8 9 7 7 8 9 9 9 9 9 10 9 9 8 8 7 7 9 9 8 8 8 8 8 7 7 8 11
7 7 7 7 7 7 7 7 7 7 7 5 4 7 2 3 8 7 8 9 10 8 7 7 7 8 8 9 10 9 10 9 7 7 9 7 9 10 9 8 7 7 7 7 10 10 9
7 7 7 7 7 7 7 7 7 8 7 5 6 5 1 3 9 8 7 8 8 8 8 8 8 7 7 8 10 9 9 7 8 8 8 7 9 11 10 9 8 9 8 7 7 7 9
6 6 6 5 5 5 5 6 6 6 6 4 4 6 4 3 4 7 7 8 8 7 7 6 7 7 8 8 8 9 9 8 8 8 5 6 9 10 11 9 8 9 8 8 8 9 9
5 5 5 4 4 4 4 4 5 5 5 4 3 5 5 7 6 6 6 7 8 8 6 6 7 7 8 9 8 9 8 8 8 6 7 7 10 9 8 8 8 8 8 8 8 8 9
4 3 3 3 3 3 3 4 5 5 6 3 5 5 4 6 6 7 7 7 8 7 6 7 7 7 7 8 8 8 8 8 8 6 7 7 9 8 9 8 8 9 8 8 8 8 7
3 3 3 3 3 3 3 3 3 5 5 3 1 2 4 7 6 7 7 7 7 6 6 5 6 7 7 7 6 6 6 6 7 7 7 7 8 9 11 8 8 11 9 8 8 7 7
3 2 2 2 2 2 2 2 2 4 4 3 1 3 6 8 6 7 6 6 7 6 7 6 5 7 5 3 4 4 5 5 6 7 6 7 7 7 10 8 13 8 6 6 7 6 5
2 2 2 2 2 2 2 1 2 3 4 3 2 3 5 8 6 6 7 7 6 6 7 6 5 4 3 4 8 9 9 8 7 6 6 6 7 9 10 10 9 8 7 7 8 7 5
2 2 2 2 1 1 1 1 1 2 3 3 2 1 3 7 7 5 6 6 8 8 7 6 3 2 3 6 9 12 14 11 11 8 6 6 6 8 9 11 13 8 5 4 4 9 6
2 2 2 2 1 1 1 0 0 1 3 3 3 3 4 7 5 4 7 7 5 7 8 7 6 6 4 8 11 12 12 8 13 12 9 9 9 10 10 11 8 6 5 5 11 8 5
2 2 2 2 1 1 1 1 1 1 2 4 4 2 3 6 4 3 3 5 5 6 10 6 7 6 7 10 10 10 10 9 10 9 10 10 11 11 10 11 12 5 6 8 6 5 4
2 2 2 1 1 1 0 1 1 1 1 2 5 2 1 6 5 2 1 1 2 3 5 5 6 7 7 8 8 8 11 8 9 13 6 10 8 10 8 9 6 4 5 5 5 5 4